Location: Kunchanapalle
(16.4623°N, 80.6176°E)
Time: 16:51:14
(UTC+00:00)

Cosmos 1727 Rocket - Pass Details

Date: 13 August 2020
Orbit: 961 x 996 km, 82.9° (Epoch: 17 September)

Event Time Altitude Azimuth Distance (km) Brightness Sun altitude
Rises 14:34:38 0° 354° (N) 3,707 7.4 -21.5°
Reaches altitude 10° 14:37:09 10° 353° (N) 2,755 6.7 -22.1°
Maximum altitude 14:43:29 79° 267° (W) 1,009 4.1 -23.5°
Enters shadow 14:48:29 17° 182° (S) 2,265 5.7 -24.5°
